sat.trackr.live / text

‹ back to catalog

STARLINK-30328

NORAD 57638 · 2023-122G

PAYLOAD ACTIVE UNKNOWN

§ Identity

Operator
Country
US
Launch date
2023-08-17
Launch site
AFETR
Launch vehicle
Mass (kg)
RCS (m²)

Purposes: comms

External: N2YO · Heavens-Above · Gunter

§ Orbital elements

Epoch: 2026-05-25T00:31:39.814176Z

Period
94.27 min
Inclination
43.0052°
Eccentricity
0.0000996
Mean motion
15.27563107 rev/d
Perigee alt
482.4 km
Apogee alt
483.8 km
Semi-major
6,861.2 km
B*
-6.5150e-5
RAAN
10.1070°
Arg perigee
260.9473°
Mean anomaly
99.1266°
Rev number
15,402

§ Raw data

STARLINK-303281 57638U 23122G   26145.02198859 -.00002053  00000+0 -65150-4 0  99912 57638  43.0052  10.1070 0000996 260.9473  99.1266 15.27563107154021

JSON: /api/v1/satellites/57638 · /tle

For live sub-satellite position, see the globe view (requires WebGL).

§ Visibility from observer

Set your observer location to see the next 7 days of passes ≥ 10°. The values pass through the URL so the page stays shareable.

No JS? Fill the form by hand. The geolocation button needs JavaScript.